User: anonymous   Login
Location: Cussy
(47.0410°N, 4.6412°E)
Time: 19:23:56
(UTC+00:00)
Language:

CSL-04 DEB - Orbit

View from above orbital plane
View from above orbital plane
View from above satellite
View from above satellite

Ground track
Ground track

The orbit data is extracted from the following two-line orbital elements,

1 26121U 99057H   21060.05927245  .00000722  00000-0  72683-4 0  9996
2 26121  98.7567 245.7842 0060225  98.3961 262.4089 14.93704504135882
Epoch (UTC): 01 March 2021 01:25:21
Eccentricity: 0.0060225
inclination: 98.7567°
perigee height: 544 km
apogee height: 628 km
right ascension of ascending node: 245.7842°
argument of perigee: 98.3961°
revolutions per day: 14.93704504
mean anomaly at epoch: 262.4089°
orbit number at epoch: 13588

The dashed part of the orbit path shows where the satellite is in the earth's shadow,  

DLR